Weather Roundup
Issued by NWS Springfield, MO

Home | Current Version | Previous Version | Text Only | Print | Product List | Glossary On
Versions: 1 2 3 4 5 6 7 8 9 10 11 12 13 14 15 16 17 18 19 20 21 22 23 24 25 26 27 28 29 30 31 32 33 34 35 36 37 38 39 40 41 42 43 44 45 46 47 48 49 50
000
NZUS99 KSGF 211307
HRRSGF

HOURLY WEATHER
NATIONAL WEATHER SERVICE SPRINGFIELD MO
700 AM CST TUE FEB 21 2017

......SGF CWA......

CITY           SKY/WX    TMP DP  RH WIND       PRES   REMARKS
SPRINGFIELD    PTCLDY    54  53  97 N10       29.89F
JOPLIN         FOG       47  47 100 VRB5      29.93R VSB 1/4
WEST PLAINS    LGT RAIN  57  55  93 NE8       29.87F
ROLLA          LGT RAIN  57  57 100 E8        29.88F
OSAGE BEACH    CLOUDY    56  55  97 N5        29.92S
BRANSON        CLOUDY    55  55 100 NW8       29.95R

......SURROUNDING SGF CWA......

CITY           SKY/WX    TMP DP  RH WIND       PRES   REMARKS
CHANUTE        CLEAR     45  43  93 N5        29.96R
PARSONS        CLEAR     45  44  97 N7        29.95S
COFFEYVILLE    CLEAR     46  45  96 NW8       29.95S
EMPORIA        CLEAR     40  39  97 NW6       29.98R
GROVE OK       FOG       46  46 100 CALM      29.93R VSB 1/4
ROGERS AR      CLOUDY    54  53  97 N6        29.91S
SILOAM SPRINGS CLOUDY    54  52  94 N6        29.90F
HARRISON AR    CLOUDY    56  55  97 NE5       29.88F
NEAR YELLVILLE CLOUDY    57  52  82 N7        29.83F

......KANSAS AND MISSOURI......

CITY           SKY/WX    TMP DP  RH WIND       PRES   REMARKS
KANSAS CTY INT CLOUDY    44  41  89 N9        29.96R
DOWNTOWN KC    PTCLDY    50  44  80 N5        29.95S
COLUMBIA       FOG       54  54 100 N6        29.92R VSB 1/2
SEDALIA        PTCLDY    53  52  96 N7        29.94R
ST JOSEPH      CLEAR     37  36  96 NE5       29.98R WCI  33
ST LOUIS       LGT RAIN  61  59  93 NE6       29.92S FOG
SPIRIT OF STL  LGT RAIN  57  57 100 CALM      29.92R VSB 1/4
KIRKSVILLE     CLOUDY    47  43  86 NE7       29.95S
WICHITA        PTCLDY    39  36  89 NW9       30.01R WCI  33
TOPEKA         CLEAR     43  38  82 CALM      29.98R
OLATHE         PTCLDY    49  46  90 NE8       29.95S

......TENNESSEE......

CITY           SKY/WX    TMP DP  RH WIND       PRES   REMARKS
MEMPHIS        CLOUDY    59  57  93 SE9       29.81R
NASHVILLE      CLOUDY    58  46  64 SE7       30.00R

......ARKANSAS.......

CITY           SKY/WX    TMP DP  RH WIND       PRES   REMARKS
FAYETTEVILLE   CLOUDY    54  54 100 NW7       29.90R
FT SMITH       LGT RAIN  57  54  89 W10       29.88S
LITTLE ROCK    LGT RAIN  58  58 100 SW8       29.84S FOG

......OKLAHOMA.......

CITY           SKY/WX    TMP DP  RH WIND       PRES   REMARKS
TULSA          FOG       45  45 100 NW5       29.94S VSB 3/4
PONCA CITY     CLEAR     45  41  86 CALM      29.98S
MCALESTER      FOG       51  49  92 NW3       29.92S VSB 1/4
OKLAHOMA CITY  CLEAR     46  42  86 NW12      29.99R

......IOWA............

CITY           SKY/WX    TMP DP  RH WIND       PRES   REMARKS
DES MOINES     PTCLDY    37  36  96 CALM      29.96R
QUAD CITIES    CLOUDY    49  44  83 CALM      29.94F

......ILLINOIS........

CITY           SKY/WX    TMP DP  RH WIND       PRES   REMARKS
QUINCY         FOG       56  56 100 CALM      29.93R VSB 1/4
CHICAGO        LGT RAIN  55  52  89 SW3       29.92R FOG




USA.gov is the U.S. government's official web portal to all federal, state and local government web resources and services.